Theta_e
325 326 325 327 328 326 328 327 323 326 335 338 336 339 341 339 345 352 350 352 361 365 362 360 361 359 355 356 356 355 358 358 358 359 359 358 357 356 355 354 353 350 346 347 349 348 349 348 348 351 354 357 357 358 359 358 359 360 359 359 357 357 358
324 326 326 327 328 329 327 322 324 332 335 334 335 338 341 337 339 349 348 346 353 355 357 364 365 362 358 357 356 356 358 358 357 359 359 359 360 359 359 356 353 350 347 348 349 349 349 348 349 353 355 357 357 358 359 359 360 360 359 359 358 356 356
325 326 325 324 326 329 329 325 329 334 328 329 332 331 335 335 337 347 346 343 347 349 352 358 359 359 361 361 360 358 359 359 357 358 358 359 360 361 361 362 359 351 347 349 350 349 349 348 349 353 354 356 357 358 360 359 360 360 359 359 358 357 357
325 326 323 319 320 325 328 326 329 332 329 331 333 329 332 337 339 346 347 345 347 348 353 355 355 360 363 362 362 360 359 360 358 358 358 359 363 364 361 363 365 359 350 350 351 349 349 349 350 352 353 356 357 358 359 360 359 360 359 359 358 358 358
322 321 321 321 321 322 324 322 321 324 325 330 335 330 329 336 342 344 348 350 347 349 358 359 356 362 363 360 361 361 359 359 359 359 359 359 362 364 361 361 364 359 352 351 351 350 351 352 352 353 354 357 357 358 359 359 359 360 358 358 358 358 358
317 319 323 325 325 324 324 322 320 323 324 326 329 329 325 330 339 341 344 348 348 354 364 363 358 361 360 361 364 365 364 362 359 358 360 361 360 361 364 363 362 358 352 351 351 350 351 352 353 353 354 356 357 357 359 358 359 359 358 357 357 358 358
320 324 327 326 326 326 326 326 326 326 326 324 324 326 325 324 332 338 341 344 350 359 364 362 360 360 359 363 365 363 365 366 361 359 361 362 361 361 363 360 357 355 351 350 351 351 352 352 352 353 354 355 356 357 357 357 358 359 357 356 356 356 357
327 326 326 326 326 325 323 324 327 326 325 327 327 329 330 328 331 335 337 341 350 359 363 361 358 359 361 365 364 362 362 362 359 356 357 360 359 360 360 357 356 355 351 350 351 351 351 352 352 353 355 354 355 356 356 355 357 357 355 354 354 354 355
327 329 331 330 328 325 322 323 325 325 325 327 328 329 330 330 328 325 326 336 346 356 361 359 358 362 364 362 363 366 365 360 357 355 354 356 357 358 359 358 358 357 354 353 352 351 350 352 352 351 353 353 354 355 355 354 355 355 354 353 353 352 353
326 330 334 332 328 327 326 325 324 324 325 323 322 322 321 324 328 327 331 342 351 356 359 358 360 365 365 362 362 364 363 359 356 356 354 354 356 357 357 358 359 359 356 354 353 352 352 353 353 351 352 354 354 354 355 354 353 353 353 354 353 351 351
328 329 333 334 329 325 322 322 322 321 322 323 322 319 317 324 334 337 343 352 354 354 358 359 360 363 365 364 362 361 361 358 356 355 353 353 355 355 356 357 358 358 356 354 354 354 354 355 354 352 352 353 354 354 354 354 354 353 352 353 354 351 350
329 328 329 329 328 324 320 321 327 329 329 328 320 316 320 334 341 340 349 355 351 354 361 361 359 360 360 360 359 358 358 357 356 354 351 352 353 352 353 355 356 356 356 356 354 352 353 354 354 353 351 352 354 355 356 355 354 353 352 352 355 354 351
326 327 327 327 327 326 324 328 335 338 340 338 331 327 332 338 340 342 352 355 352 356 360 359 359 359 356 356 355 354 354 356 356 354 351 351 352 350 351 352 353 354 354 353 353 351 351 353 355 357 356 355 357 359 358 358 357 355 355 355 357 358 356
324 325 327 328 329 329 332 337 341 342 342 345 344 345 348 346 343 348 356 356 355 357 357 358 359 358 355 353 351 352 354 356 355 354 352 351 350 350 352 352 353 354 352 350 351 352 353 354 356 359 357 357 358 358 355 354 355 356 357 358 359 359 357
325 325 326 328 330 333 333 336 342 343 343 347 349 349 352 355 354 355 357 357 360 361 359 359 358 357 355 351 349 352 355 355 355 355 354 353 352 352 352 353 353 354 353 351 350 350 351 351 352 353 352 352 353 353 352 351 352 354 354 353 354 355 355
326 325 326 329 330 332 332 334 340 344 344 347 348 349 351 351 352 355 357 357 360 363 361 358 358 357 355 351 350 352 352 353 353 353 354 354 353 353 353 352 352 352 351 350 349 348 347 348 349 349 349 349 350 351 353 352 351 352 352 352 351 350 353
327 326 327 329 331 336 336 336 339 344 346 347 347 349 349 347 349 354 355 355 357 358 358 357 356 355 354 353 351 350 350 349 348 349 351 352 351 351 351 351 350 349 348 348 348 346 345 345 346 347 348 348 349 350 352 352 351 351 351 350 349 348 350
327 328 329 331 337 341 339 337 338 342 345 347 347 347 347 346 348 350 352 353 353 354 355 355 353 352 352 351 348 347 347 345 344 346 348 349 350 350 348 347 347 346 345 345 345 343 342 342 342 344 346 346 347 349 350 351 351 350 349 349 349 349 350
328 332 333 335 339 341 337 336 338 339 341 345 346 345 345 345 345 346 349 350 349 349 350 350 350 348 347 347 346 345 343 342 344 347 348 348 349 348 346 345 343 343 342 341 340 339 338 339 339 340 342 344 345 346 347 348 348 348 348 347 347 348 349
335 338 337 336 339 339 335 337 338 335 339 344 344 344 345 344 344 345 346 348 347 347 347 347 347 346 346 347 347 345 344 343 345 349 350 348 346 345 344 343 341 341 340 339 338 338 337 337 338 338 339 341 342 341 342 343 343 344 345 344 344 345 345
339 343 341 336 337 339 340 341 338 333 337 342 344 346 346 344 344 345 346 346 346 345 345 346 344 342 343 345 345 345 345 344 345 347 348 346 344 343 342 340 340 340 339 338 338 337 337 337 336 336 337 339 340 339 338 339 339 339 340 339 339 340 341
339 345 345 340 338 341 343 343 338 333 334 336 336 342 346 345 344 345 345 346 346 345 345 346 345 344 346 346 344 342 342 342 343 344 344 341 341 341 340 340 339 338 337 337 337 336 336 335 334 334 335 336 336 336 335 335 335 335 335 335 335 337 337
336 341 344 342 340 342 345 344 338 332 333 334 332 339 344 345 344 344 344 345 346 346 346 346 348 351 351 347 344 343 342 342 342 343 343 341 339 339 338 338 337 336 336 335 335 334 333 332 332 331 331 332 332 331 331 331 331 331 331 331 332 333 334
333 335 339 340 338 340 345 343 338 336 337 336 338 342 343 342 342 345 345 344 344 345 346 346 348 352 350 345 342 342 342 341 342 342 341 340 338 338 337 337 335 334 334 333 332 332 331 331 330 330 330 330 330 329 329 328 329 329 329 329 330 331 332
337 335 336 338 337 340 342 338 336 341 343 340 340 345 345 341 342 345 344 344 343 344 345 346 346 347 345 342 340 339 340 340 340 340 339 338 337 336 336 335 332 329 329 330 330 330 330 329 329 329 329 328 327 327 327 326 327 327 326 326 328 329 332
338 337 336 337 337 339 340 337 336 340 343 340 339 343 344 342 342 342 342 343 344 344 345 345 345 343 340 338 338 338 339 339 338 337 336 336 336 336 336 332 328 326 327 328 327 327 328 328 326 325 325 326 326 326 326 326 327 326 324 323 323 324 326
338 335 334 337 338 338 339 340 340 340 340 340 339 339 341 340 340 341 342 343 343 342 342 342 341 341 339 338 339 338 338 338 337 335 335 334 334 334 332 329 327 326 326 327 326 326 327 328 328 326 325 327 327 326 325 326 327 327 327 327 326 325 324
339 336 335 338 338 337 338 341 342 340 339 342 340 338 340 341 340 341 343 345 343 341 340 339 338 339 340 339 339 338 337 338 337 334 334 333 332 331 329 328 328 327 326 325 325 327 328 329 329 329 328 328 327 326 325 325 325 325 326 326 327 327 327
338 339 339 338 335 334 335 337 339 337 336 337 337 336 339 341 341 341 341 342 343 342 341 341 340 340 340 338 337 338 337 337 337 336 334 333 332 331 330 329 328 327 326 325 325 326 327 328 327 327 327 326 326 326 326 327 327 326 326 325 325 324 324
336 337 337 335 334 333 331 332 335 335 333 333 334 336 339 341 340 341 340 339 343 346 346 346 346 344 343 341 338 338 337 336 336 336 335 333 331 330 329 328 328 327 327 326 325 325 325 326 326 326 325 324 325 326 326 326 326 324 323 324 324 324 323
335 335 334 333 333 333 330 329 332 333 333 333 334 335 337 338 338 340 340 340 342 345 344 345 346 345 345 345 343 341 341 339 336 335 335 334 331 330 329 328 327 327 326 326 326 326 326 326 326 325 325 324 324 324 323 323 323 322 321 321 322 322 321
336 335 333 332 331 331 332 331 331 333 334 334 334 334 334 334 334 335 336 338 340 342 342 343 344 342 342 342 343 343 342 339 336 335 335 333 331 329 328 327 327 326 326 326 327 327 326 326 325 324 325 325 325 324 324 324 325 325 325 325 325 324 322
335 334 332 332 332 332 332 332 332 334 334 333 334 334 332 332 333 333 331 331 333 337 338 340 341 342 342 341 339 341 341 338 335 334 333 332 331 329 328 327 327 326 327 327 327 326 326 325 325 325 327 327 326 324 324 324 325 325 324 325 325 324 323
334 334 334 336 336 334 332 332 332 334 333 332 333 333 332 332 334 335 332 330 329 331 333 336 340 343 343 340 337 338 339 336 335 334 332 330 329 328 326 325 325 326 327 327 327 327 326 326 326 327 327 326 324 323 322 323 322 322 323 323 322 321 321
334 336 338 338 336 334 333 333 333 333 333 333 333 334 333 332 331 332 334 334 333 332 330 330 335 340 340 336 335 336 336 334 333 333 333 331 330 329 327 326 326 326 326 326 326 327 326 326 326 325 324 324 323 322 322 322 322 323 325 324 322 321 319
332 335 338 336 332 332 333 333 333 333 332 331 332 333 333 332 328 328 331 334 334 334 331 327 328 333 335 334 333 335 334 334 334 333 333 332 331 329 328 327 326 326 326 326 326 326 325 325 325 324 323 324 323 322 321 322 322 323 324 324 324 323 319
332 334 336 334 332 333 333 331 331 330 329 328 329 329 328 327 326 326 328 329 328 330 331 328 326 328 330 330 332 333 334 334 334 333 333 333 332 331 330 329 327 327 327 327 327 326 325 325 323 323 324 325 323 322 321 322 322 322 324 324 323 323 322
Wind_Speed
9 9 7 7 6 3 2 4 4 5 5 8 4 2 3 2 1 1 1 2 1 1 5 5 3 4 2 5 10 13 13 14 14 12 11 10 9 9 9 9 8 10 16 18 21 24 22 23 24 25 30 33 31 30 30 28 25 25 26 25 25 24 21
8 7 6 8 4 5 3 4 5 4 3 5 3 3 2 2 1 0 2 2 1 1 3 3 3 4 3 2 6 12 13 14 15 13 12 12 10 8 9 10 10 11 15 17 20 23 24 25 24 26 31 33 32 31 30 29 26 25 25 24 24 24 22
8 6 3 7 6 4 5 3 3 4 3 2 2 2 3 3 2 0 3 3 2 2 3 3 4 6 5 3 4 8 12 13 13 12 12 12 10 7 7 7 6 9 14 18 22 24 24 24 24 27 31 30 31 30 29 29 26 25 25 23 23 23 22
6 6 2 2 5 7 6 3 1 3 4 3 2 1 2 3 2 1 1 2 2 3 4 4 7 7 6 5 4 4 9 12 11 10 11 12 9 6 6 5 4 2 5 8 16 22 25 25 25 29 31 29 30 30 28 28 25 24 25 23 22 23 23
1 5 3 4 5 4 4 2 2 2 3 3 3 1 2 3 3 3 2 1 4 3 3 5 7 6 5 6 4 2 3 8 10 11 11 10 4 5 4 5 4 5 9 10 8 7 11 17 21 25 29 29 29 29 28 28 26 24 25 24 23 23 22
3 1 2 4 5 5 4 3 3 3 3 4 3 1 3 3 4 4 4 2 4 3 1 2 4 5 5 5 4 2 2 3 9 10 8 7 8 7 5 7 6 4 10 12 11 8 7 14 17 14 19 27 28 28 28 27 26 25 24 25 24 23 23
6 8 10 9 8 7 6 5 4 4 3 5 4 3 5 4 4 4 2 1 2 1 0 2 3 3 2 2 2 1 2 2 2 5 9 10 10 9 8 8 8 8 13 14 13 11 11 17 19 11 12 21 24 25 29 27 26 27 25 25 25 24 23
6 9 9 9 9 7 3 3 5 6 4 4 5 4 3 3 4 4 3 2 3 2 3 4 5 3 2 4 4 3 4 6 6 4 6 9 9 8 8 9 9 12 16 16 14 15 15 17 19 13 12 19 20 22 28 27 25 28 26 25 27 26 24
5 6 6 6 4 3 4 3 5 8 9 8 6 4 2 2 4 7 6 2 2 2 2 2 4 3 4 5 4 6 6 7 7 3 2 4 8 8 8 10 10 11 13 14 15 17 17 18 21 17 15 18 18 18 24 25 23 25 22 23 29 29 25
2 2 2 3 3 3 6 7 6 8 11 10 7 3 2 1 4 5 4 3 3 4 3 2 3 2 4 5 4 6 7 8 9 4 2 1 5 8 9 9 10 10 10 12 15 17 17 17 20 20 19 20 18 16 21 23 22 21 19 20 26 29 25
3 3 4 6 6 5 7 11 12 11 12 12 7 1 1 3 2 2 1 8 9 5 4 5 4 4 5 5 3 4 7 8 9 7 3 3 2 6 9 8 9 10 10 11 14 15 16 16 16 16 17 18 18 16 18 21 22 20 19 18 20 24 24
5 6 8 10 9 7 9 11 12 11 10 8 7 4 4 5 7 4 2 11 11 5 5 6 5 4 6 6 5 4 5 6 7 7 7 4 3 4 5 5 6 10 11 12 14 16 18 19 18 16 15 15 15 15 16 18 19 19 20 18 16 18 21
8 8 8 9 9 9 9 8 12 15 16 14 7 4 3 2 8 8 9 12 11 8 7 5 3 6 8 7 6 5 5 6 7 9 10 7 6 6 5 5 5 5 6 7 12 17 19 19 18 17 17 15 12 12 12 11 11 12 17 19 17 16 15
9 10 9 8 7 9 10 13 17 15 15 18 17 14 11 7 8 11 11 12 9 4 4 6 6 8 10 9 7 7 6 6 7 9 10 9 7 6 5 5 6 6 7 8 9 9 10 11 12 13 15 13 10 10 9 8 7 6 10 13 12 8 4
8 9 9 6 6 10 14 17 17 16 16 18 17 15 12 9 10 12 12 10 6 4 4 7 7 8 11 10 8 6 5 5 7 8 8 9 9 8 8 7 6 6 7 9 11 11 11 12 12 11 10 7 6 9 10 8 7 3 3 5 4 2 4
6 9 7 7 7 9 14 15 16 15 14 13 12 12 11 8 7 8 9 7 4 4 6 7 7 8 10 9 6 5 5 6 8 8 6 6 7 8 9 8 7 7 8 9 10 11 12 12 11 9 7 5 4 6 7 6 5 2 1 2 3 1 5
5 8 8 10 7 6 8 9 10 11 11 11 12 12 14 12 7 4 3 3 3 3 5 9 10 11 10 8 5 5 6 8 9 8 6 6 6 7 8 9 8 9 9 10 13 15 15 15 14 13 11 10 9 7 5 4 3 4 5 5 3 1 3
4 8 7 7 5 5 2 5 5 8 10 13 14 12 13 13 7 3 3 5 6 7 8 11 12 10 10 9 8 7 7 8 8 6 5 5 7 7 9 9 9 11 13 14 16 17 17 16 16 16 15 14 13 10 8 6 4 5 7 8 8 7 6
2 5 5 4 3 2 2 4 4 6 7 10 13 12 13 11 6 4 7 10 11 10 9 10 11 10 10 10 10 9 8 7 6 3 3 5 7 7 9 9 9 13 16 17 17 17 17 16 16 16 15 13 12 11 9 8 7 6 7 9 10 9 7
1 3 4 2 2 1 3 4 6 6 5 5 8 9 11 10 5 3 7 10 10 9 9 8 9 10 9 9 7 7 7 6 2 2 5 8 8 8 9 9 9 12 16 18 18 18 17 17 17 16 15 13 12 12 11 10 10 9 9 10 10 10 8
2 2 2 1 2 1 4 5 4 6 5 4 5 5 6 7 5 4 6 8 7 7 7 6 7 10 10 9 7 8 9 8 5 6 7 7 7 11 14 14 12 13 15 16 17 17 16 17 17 17 17 16 15 15 14 13 13 12 12 13 13 12 11
2 4 2 2 1 1 2 4 8 7 6 6 5 4 3 5 5 4 6 7 7 6 4 3 5 7 8 6 4 8 11 10 8 10 11 11 11 11 13 15 15 15 16 15 15 14 14 14 14 14 15 16 17 17 16 15 15 15 16 15 15 14 14
3 5 3 0 2 3 4 6 9 6 7 9 7 3 2 4 4 4 7 7 6 5 3 3 5 6 5 2 1 3 6 6 7 8 11 14 14 12 13 17 17 17 17 16 15 14 15 14 14 14 15 16 17 17 16 16 16 17 16 15 14 15 14
3 5 3 1 1 2 5 7 7 4 7 9 7 2 1 2 2 4 6 8 6 4 3 3 4 4 4 4 3 3 6 8 8 9 11 14 13 11 14 17 17 16 16 15 14 14 14 14 14 13 14 15 16 15 14 15 15 15 14 14 14 14 15
3 3 3 2 1 2 5 7 7 2 5 6 4 2 3 2 3 4 6 8 6 4 3 3 3 3 4 6 6 6 8 9 9 10 14 16 15 14 15 16 15 16 16 15 14 13 13 14 13 12 13 14 16 16 14 14 13 13 12 13 12 12 12
1 0 2 2 0 3 4 6 7 2 4 3 2 3 3 3 4 5 6 7 6 4 4 4 5 5 5 6 7 9 10 9 9 12 15 16 15 14 14 15 16 17 16 15 15 14 14 14 13 13 14 15 15 15 14 13 11 11 11 12 12 12 11
2 1 1 3 0 3 5 4 3 3 3 4 4 3 3 5 6 6 6 6 6 6 6 6 6 7 6 5 5 8 10 10 11 15 16 15 14 14 15 16 15 15 15 14 15 15 14 14 14 14 14 14 14 14 13 11 10 10 10 10 11 11 11
2 2 2 2 2 2 2 1 3 3 2 4 5 5 4 5 5 5 5 6 6 6 7 7 7 7 7 5 4 6 9 9 10 14 17 16 15 16 16 16 15 15 16 16 16 16 15 14 14 14 15 16 15 14 12 10 10 10 9 9 9 8 8
2 3 3 3 3 1 5 5 5 5 5 5 6 7 5 5 5 4 4 6 6 5 5 6 5 5 6 6 4 4 8 8 8 12 16 17 16 16 17 17 16 17 17 17 16 15 14 14 14 14 15 16 14 12 10 9 9 9 9 9 9 7 7
4 5 4 4 4 5 7 7 7 7 8 7 7 7 5 4 5 5 5 6 5 4 4 5 4 4 4 4 3 4 7 8 8 10 13 15 17 19 19 18 16 17 17 16 15 14 13 13 13 12 13 13 13 11 9 8 9 10 9 9 7 6 5
5 4 4 6 6 6 6 8 8 8 8 7 6 6 5 5 5 5 6 6 5 5 5 5 5 4 4 5 5 5 5 7 9 10 10 13 18 21 19 16 16 17 17 15 13 14 13 12 11 11 11 11 11 10 8 9 9 8 8 9 8 7 7
4 5 6 7 7 6 6 6 6 6 7 6 6 6 6 6 6 6 6 6 6 5 5 5 5 4 4 5 6 6 5 6 8 10 11 14 17 19 18 17 18 18 16 14 13 13 14 12 10 10 9 8 8 9 9 8 7 5 5 4 4 5 6
5 6 7 7 7 7 7 7 6 5 6 6 6 6 6 7 7 7 8 9 7 6 6 5 5 5 4 5 6 6 5 6 9 11 13 14 15 16 16 17 19 18 16 15 13 12 12 11 10 9 8 7 6 7 7 6 5 4 3 2 2 4 6
4 5 6 7 7 6 5 6 7 6 7 7 8 7 7 7 7 7 7 9 10 10 10 8 7 5 5 6 7 7 6 8 10 13 15 14 13 14 16 17 17 17 16 14 12 12 10 10 9 9 8 7 6 5 5 5 5 5 3 4 5 6 6
4 5 6 6 7 6 5 7 7 7 7 8 8 7 7 7 7 7 7 7 8 9 10 11 9 6 6 8 9 8 7 9 9 10 11 12 11 12 15 16 16 16 15 13 12 12 11 10 9 8 8 8 7 6 5 4 4 6 4 3 3 3 3
6 6 7 7 8 7 7 7 7 7 7 8 7 7 7 7 8 9 7 7 7 7 8 12 14 9 9 11 10 7 8 8 7 5 6 8 9 10 13 15 15 15 15 14 13 12 10 10 9 8 8 7 7 6 6 4 5 6 3 1 1 4 3
7 7 7 8 9 8 7 8 7 8 10 10 8 7 7 7 9 10 8 7 10 10 7 9 14 15 12 10 9 9 9 8 6 4 4 3 6 9 10 13 15 15 14 14 13 12 11 11 10 9 9 8 7 6 6 5 5 5 1 1 5 8 5
Wind_Direction
192 204 215 220 202 178 185 193 199 209 163 129 113 114 139 153 146 143 189 246 241 259 280 266 257 296 300 170 184 180 177 183 184 190 194 194 203 200 189 183 176 170 170 168 169 172 171 167 166 165 165 166 168 171 174 178 180 178 179 183 186 186 186
201 193 218 259 230 147 153 211 207 196 130 113 117 107 144 200 183 52 306 271 233 286 270 243 238 262 280 276 199 178 173 180 185 191 193 193 199 195 186 181 173 168 169 168 169 170 170 170 170 166 165 168 170 172 174 177 179 179 180 184 187 188 187
174 145 193 274 273 219 202 209 185 169 142 120 113 114 165 186 151 74 319 309 256 235 253 232 216 224 228 260 236 181 172 178 185 189 191 193 196 190 179 166 158 169 169 167 168 167 167 170 172 168 166 168 170 171 174 176 179 181 182 184 187 190 190
142 131 142 247 262 263 255 284 358 153 144 142 140 124 164 147 125 160 308 323 258 228 243 226 213 212 202 211 239 210 181 179 182 183 187 193 191 181 167 129 78 90 123 147 163 167 169 171 171 169 167 167 169 171 174 176 178 181 184 186 187 190 192
114 155 168 193 211 244 252 280 275 177 114 102 130 191 180 130 125 161 153 243 255 242 229 219 211 204 198 196 199 254 208 180 180 182 186 186 141 77 101 111 82 56 57 63 88 117 149 156 156 163 166 166 168 170 173 176 178 180 184 187 188 190 192
337 321 290 249 228 217 198 200 250 216 136 107 108 202 212 147 131 149 149 204 259 276 249 209 193 186 204 190 164 216 289 191 191 183 157 129 101 92 114 127 133 103 75 83 97 90 101 123 127 142 159 161 165 169 172 177 182 184 186 188 189 189 191
325 314 307 294 275 251 209 180 226 244 175 144 146 184 206 175 133 121 113 215 254 284 258 176 159 171 188 130 120 232 316 329 254 146 119 124 141 150 138 122 127 113 91 95 117 126 121 128 134 138 150 153 159 169 174 177 183 187 190 191 190 188 190
318 308 301 290 276 264 243 179 205 240 237 181 172 184 185 161 149 131 114 229 227 200 206 174 151 160 129 84 65 63 46 12 13 70 132 149 148 136 119 118 125 123 120 123 132 133 125 133 150 159 155 152 155 166 174 179 184 188 194 196 191 188 191
331 332 329 318 302 307 327 291 223 233 240 225 210 195 121 114 195 167 141 188 221 165 197 164 129 143 120 87 82 90 72 51 61 58 251 155 128 119 121 132 135 130 132 136 142 148 145 146 160 171 167 162 161 165 173 179 182 184 189 193 190 189 191
317 341 323 308 300 309 316 303 274 255 250 244 234 190 114 166 216 182 137 122 112 107 113 97 95 128 107 80 83 103 92 88 104 113 305 7 122 130 131 138 140 135 136 140 146 155 155 153 165 177 176 169 167 172 181 186 186 183 179 178 183 188 190
243 247 254 266 269 279 309 312 302 284 264 249 234 189 166 171 114 20 85 130 127 132 139 141 168 170 117 82 60 83 93 101 116 123 98 23 62 127 131 139 143 136 136 144 146 143 141 147 160 172 178 175 172 177 186 190 191 190 184 174 178 186 187
265 269 270 275 284 290 297 313 329 333 317 277 231 213 216 162 103 59 138 129 124 151 174 166 177 147 93 77 61 57 71 90 104 107 96 66 25 69 103 120 137 138 134 137 138 133 134 143 150 160 176 183 181 179 182 185 187 191 191 185 183 188 189
296 296 291 290 309 314 304 340 19 21 16 13 7 345 311 155 129 142 156 137 133 164 176 161 126 86 82 83 84 74 63 74 96 107 104 92 54 41 51 45 45 73 90 105 126 135 142 147 146 154 166 173 173 169 168 168 167 181 193 192 191 189 188
302 307 304 306 342 3 11 24 27 28 34 35 27 19 20 47 107 126 129 124 127 154 149 121 99 92 93 86 76 73 69 80 109 122 120 114 100 82 84 72 51 56 54 48 68 100 122 124 119 127 136 139 136 127 130 143 149 176 201 196 190 185 174
316 300 292 310 10 44 45 32 22 25 37 40 32 22 21 40 82 98 101 105 96 49 74 102 103 103 100 89 80 79 72 83 107 116 120 126 130 126 119 113 103 95 81 62 53 49 47 49 52 63 75 77 88 93 98 127 151 183 218 183 149 142 183
317 292 305 345 14 55 50 29 19 25 33 42 41 28 20 27 62 82 84 89 75 35 54 68 62 72 87 92 95 90 75 73 85 92 98 107 118 123 121 116 109 100 92 85 78 67 60 60 61 67 73 62 47 57 67 91 118 104 62 83 73 91 211
301 301 332 348 353 48 47 17 21 32 35 49 51 37 30 28 30 46 52 46 34 28 53 61 55 54 66 79 82 78 80 79 74 65 54 66 85 103 114 112 106 105 103 101 100 92 83 85 90 98 108 103 82 72 74 80 89 86 75 71 75 92 258
292 311 334 348 7 58 18 314 14 50 55 62 60 45 36 35 30 25 45 58 60 55 59 67 66 59 59 67 64 57 65 80 81 60 30 51 74 84 97 102 101 107 106 101 101 99 93 93 93 92 96 97 92 90 93 93 92 89 86 95 114 138 174
298 323 354 23 46 89 261 293 20 57 70 80 74 55 41 42 42 41 60 70 71 69 67 66 67 65 62 67 69 70 78 93 106 105 93 98 91 80 86 91 94 103 104 99 95 96 98 98 96 92 91 93 95 91 88 89 90 86 85 90 99 114 137
359 354 11 47 179 239 326 359 33 32 26 64 75 49 28 34 47 48 66 75 75 75 77 76 81 79 69 63 62 76 100 116 126 113 115 118 113 104 99 94 93 101 105 106 107 107 110 110 109 109 110 110 106 100 97 99 97 95 97 92 91 98 105
83 85 358 328 188 297 357 9 5 6 16 41 80 73 25 23 43 55 69 77 74 67 59 62 90 93 75 53 21 23 56 73 67 66 75 85 97 109 114 114 111 108 106 107 108 109 112 115 117 124 128 130 127 119 115 113 109 108 106 98 95 98 96
100 102 40 340 213 242 305 306 311 336 23 19 24 80 46 3 24 65 82 81 77 78 64 50 92 92 73 55 8 15 37 45 52 63 63 56 54 70 94 101 98 95 93 94 97 101 102 102 107 117 123 125 125 120 115 115 112 108 102 97 97 98 95
129 117 109 207 228 254 261 278 299 333 31 12 358 43 35 330 349 62 92 94 87 98 117 111 104 95 87 106 164 70 71 63 60 72 76 72 63 57 72 84 87 89 91 91 92 94 95 95 98 104 107 109 109 106 104 106 104 98 94 94 98 99 98
139 127 131 159 239 260 243 256 284 337 42 25 19 64 210 292 350 61 94 109 114 129 133 99 88 91 115 151 172 125 112 101 90 94 97 95 94 88 88 92 95 97 99 99 101 102 105 107 106 105 107 108 106 103 101 99 94 90 89 91 95 99 100
81 100 119 137 228 235 226 251 272 279 76 51 46 170 207 185 117 86 95 113 130 149 135 85 58 58 102 141 157 144 128 116 109 112 110 109 112 113 110 108 104 100 101 101 102 109 117 119 116 114 112 107 103 105 105 101 95 92 92 93 97 102 104
71 93 103 95 192 229 220 249 272 271 107 105 183 206 193 119 92 70 74 95 113 119 102 89 95 101 112 136 148 143 137 135 131 125 116 114 121 129 126 119 112 112 115 112 105 105 111 112 113 115 113 107 105 109 110 108 105 99 94 94 96 99 103
133 144 91 79 143 248 242 249 297 10 89 148 157 123 77 69 67 54 49 62 83 94 93 93 107 122 128 133 138 137 136 137 136 134 129 126 131 135 132 128 130 131 128 119 109 106 106 108 112 116 115 110 110 110 107 108 112 110 103 97 92 90 94
132 136 126 131 186 268 321 59 88 80 123 152 128 103 83 68 70 68 58 53 67 94 112 121 128 135 137 139 143 136 133 136 136 133 134 137 143 142 136 133 131 122 110 104 103 104 108 113 116 116 113 108 106 105 104 106 112 112 108 102 95 91 91
131 145 149 150 153 71 40 62 89 92 86 86 91 96 93 72 67 76 78 66 56 64 92 114 125 131 133 143 155 132 125 130 128 129 139 149 151 142 132 126 119 111 109 110 109 108 111 115 117 119 119 115 108 104 106 109 108 109 110 107 103 105 105
103 103 118 121 102 70 58 60 64 69 68 65 69 79 86 86 81 80 88 91 80 67 73 85 84 74 89 115 118 106 115 125 124 125 136 143 137 127 123 123 123 119 117 116 114 114 115 114 114 118 120 118 114 112 115 120 118 117 118 113 105 107 112
117 107 128 122 103 93 85 76 71 72 71 66 66 71 74 79 82 86 99 112 115 105 96 95 87 66 54 68 78 80 93 115 128 127 119 116 122 127 130 133 131 124 120 121 123 124 123 119 117 119 118 117 117 118 118 120 120 116 114 111 107 107 108
119 123 141 135 123 122 113 96 90 91 92 91 92 90 83 76 73 75 87 101 116 124 117 112 109 98 80 82 90 84 70 79 108 122 115 110 118 128 135 136 132 125 123 123 121 118 119 122 123 122 117 114 119 126 122 116 112 111 114 117 117 120 117
105 124 141 138 120 106 97 96 96 94 97 99 94 87 83 78 71 63 56 56 66 94 110 111 102 90 79 78 86 88 80 74 86 103 111 113 114 119 125 129 129 128 127 126 121 119 124 129 130 129 127 122 123 132 135 130 128 130 125 91 87 129 138
141 153 153 143 126 114 110 113 109 95 87 84 80 77 74 68 66 69 63 49 46 62 85 100 102 86 64 63 74 83 87 88 91 102 115 121 118 116 123 128 131 133 136 135 133 134 136 139 141 144 147 142 133 131 135 133 134 138 120 62 68 101 119
141 137 133 128 121 122 127 121 114 106 96 87 81 82 83 76 67 65 67 63 53 52 62 71 83 104 105 87 79 76 81 94 102 107 118 129 129 126 131 136 137 139 144 147 149 150 151 153 157 159 157 154 155 155 149 137 136 140 124 57 65 104 113
106 107 113 115 111 115 122 113 101 99 105 104 95 84 81 83 82 76 68 68 70 68 56 51 55 75 113 116 107 95 90 96 103 103 113 136 147 146 145 146 146 147 152 158 161 163 166 166 167 170 169 167 171 171 166 162 158 153 143 349 155 147 119
108 105 105 107 109 114 115 102 89 88 95 97 93 80 70 74 87 89 82 70 72 77 78 62 52 54 71 91 107 117 110 94 86 94 103 133 162 163 160 160 159 160 163 165 167 173 179 180 181 184 178 174 183 186 178 173 167 165 188 288 147 145 139